Back to catalog

NOAA 20

AliveWeatherSSO
NORAD 43013·PAYLOAD·🇺🇸 United States

Launched Nov 18, 2017 from Vandenberg Space Force Base

Loading…

Next Passes (next 24 hours)

TLE

FreshSource: Space-Track

Epoch: Sep 14, 2026, 14:08 UTC

1 43013U 17073A   26257.58906438  .00000050  00000-0  44522-4 0  9990
2 43013  98.7814 196.2715 0001552  50.3391 309.7921 14.19525834457150

Track NOAA 20 in real time with AllMySat

Download on the App Store